Simultaneous Nadir Overpasses (SNOs) Predictions

Prediction of SNOs between GOES-17 and NOAA-20 Satellite Orbit:

Table of predicted SNOs for the next 14.0 days since TLE Epoch: 4/13/2024
Index Date Time (GOES-17) GOES-17 Lat,Lon NOAA-20 Lat,Lon Distance(km) Time Diff (sec)
1 04/13/2024 20:24:29 -0.00,-104.68 0.04,-104.45 25.78 80
2 04/16/2024 08:27:46 0.00,-104.70 0.10,-105.25 62.64 80
3 04/17/2024 08:06:27 0.00,-104.70 -0.90,-100.74 451.45 80
4 04/18/2024 20:28:31 -0.01,-104.69 -0.31,-106.08 158.79 80
5 04/19/2024 20:12:32 -0.01,-104.69 0.70,-101.58 355.53 80
6 04/21/2024 08:34:27 0.01,-104.72 0.50,-106.88 245.94 80
7 04/22/2024 08:13:07 0.01,-104.73 -0.51,-102.37 268.37 80
8 04/23/2024 20:37:52 -0.01,-104.71 -0.68,-107.71 341.73 80
9 04/24/2024 20:16:32 -0.00,-104.72 0.34,-103.20 172.51 80
10 04/26/2024 08:41:08 0.01,-104.74 0.86,-108.51 429.17 80
